Time,TemperatureF,DewpointF,PressureIn,WindDirection,WindDirectionDegrees,WindSpeedMPH,WindSpeedGustMPH,Humidity,HourlyPrecipIn,Conditions,Clouds,dailyrainin,SolarRadiationWatts/m^2,SoftwareType,DateUTC
2013-08-03 00:42:00,53.0,53.0,-100.00,West,270,0.0,-999.0,98,-99.99,,,-99.99,0.000000,,2013-08-03 05:42:00,
2013-08-03 01:00:00,53.0,52.0,-100.00,West,270,0.0,-999.0,99,-99.99,,,-99.99,0.000000,,2013-08-03 06:00:00,
2013-08-03 01:42:00,53.0,52.0,-100.00,West,270,0.0,-999.0,99,-99.99,,,-99.99,0.000000,,2013-08-03 06:42:00,
2013-08-03 01:52:00,53.0,52.0,-100.00,West,270,0.0,-999.0,99,-99.99,,,-99.99,0.000000,,2013-08-03 06:52:00,
2013-08-03 03:00:00,55.0,53.0,-100.00,NW,315,3.0,-999.0,92,-99.99,,,-99.99,0.000000,,2013-08-03 08:00:00,
2013-08-03 03:32:00,55.0,53.0,-100.00,NW,315,3.0,-999.0,92,-99.99,,,-99.99,0.000000,,2013-08-03 08:32:00,
2013-08-03 03:43:00,55.0,53.0,-100.00,NW,315,3.0,-999.0,92,-99.99,,,-99.99,0.000000,,2013-08-03 08:43:00,
2013-08-03 03:52:00,55.0,53.0,-100.00,NW,315,3.0,-999.0,92,-99.99,,,-99.99,0.000000,,2013-08-03 08:52:00,
2013-08-03 04:00:00,57.0,54.0,-100.00,North,0,3.0,-999.0,88,-99.99,,,-99.99,0.000000,,2013-08-03 09:00:00,
2013-08-03 04:43:00,57.0,54.0,-100.00,North,0,3.0,-999.0,88,-99.99,,,-99.99,0.000000,,2013-08-03 09:43:00,
2013-08-03 04:53:00,57.0,54.0,-100.00,North,0,3.0,-999.0,88,-99.99,,,-99.99,0.000000,,2013-08-03 09:53:00,
2013-08-03 05:00:00,54.0,52.0,-100.00,NW,315,0.0,-999.0,93,-99.99,,,-99.99,0.000000,,2013-08-03 10:00:00,
2013-08-03 05:32:00,54.0,52.0,-100.00,NW,315,0.0,-999.0,93,-99.99,,,-99.99,0.000000,,2013-08-03 10:32:00,
2013-08-03 05:42:00,54.0,52.0,-100.00,NW,315,0.0,-999.0,93,-99.99,,,-99.99,0.000000,,2013-08-03 10:42:00,
2013-08-03 05:53:00,54.0,52.0,-100.00,NW,315,0.0,-999.0,93,-99.99,,,-99.99,0.000000,,2013-08-03 10:53:00,
2013-08-03 06:00:00,52.0,51.0,-100.00,WNW,292,2.0,-999.0,96,-99.99,,,-99.99,4.640000,,2013-08-03 11:00:00,
2013-08-03 06:43:00,52.0,51.0,-100.00,WNW,292,2.0,-999.0,96,-99.99,,,-99.99,4.640000,,2013-08-03 11:43:00,
2013-08-03 06:53:00,52.0,51.0,-100.00,WNW,292,2.0,-999.0,96,-99.99,,,-99.99,4.640000,,2013-08-03 11:53:00,
2013-08-03 07:00:00,56.0,55.0,-100.00,NW,315,4.0,-999.0,93,-99.99,,,-99.99,105.559998,,2013-08-03 12:00:00,
2013-08-03 07:43:00,56.0,55.0,-100.00,NW,315,4.0,-999.0,93,-99.99,,,-99.99,105.559998,,2013-08-03 12:43:00,
2013-08-03 07:53:00,56.0,55.0,-100.00,NW,315,4.0,-999.0,93,-99.99,,,-99.99,105.559998,,2013-08-03 12:53:00,
2013-08-03 08:00:00,61.0,56.0,-100.00,NNW,337,6.0,-999.0,82,-99.99,,,-99.99,267.959991,,2013-08-03 13:00:00,
2013-08-03 08:33:00,61.0,56.0,-100.00,NNW,337,6.0,-999.0,82,-99.99,,,-99.99,267.959991,,2013-08-03 13:33:00,
2013-08-03 08:43:00,61.0,56.0,-100.00,NNW,337,6.0,-999.0,82,-99.99,,,-99.99,267.959991,,2013-08-03 13:43:00,
2013-08-03 08:52:00,61.0,56.0,-100.00,NNW,337,6.0,-999.0,82,-99.99,,,-99.99,267.959991,,2013-08-03 13:52:00,
2013-08-03 09:00:00,63.0,55.0,-100.00,NNW,337,8.0,-999.0,76,-99.99,,,-99.99,437.320007,,2013-08-03 14:00:00,
2013-08-03 09:33:00,63.0,55.0,-100.00,NNW,337,8.0,-999.0,76,-99.99,,,-99.99,437.320007,,2013-08-03 14:33:00,
2013-08-03 09:43:00,63.0,55.0,-100.00,NNW,337,8.0,-999.0,76,-99.99,,,-99.99,437.320007,,2013-08-03 14:43:00,
2013-08-03 09:52:00,63.0,55.0,-100.00,NNW,337,8.0,-999.0,76,-99.99,,,-99.99,437.320007,,2013-08-03 14:52:00,
2013-08-03 10:00:00,65.0,55.0,-100.00,NNW,337,7.0,-999.0,70,-99.99,,,-99.99,591.599976,,2013-08-03 15:00:00,
2013-08-03 10:43:00,65.0,55.0,-100.00,NNW,337,7.0,-999.0,70,-99.99,,,-99.99,591.599976,,2013-08-03 15:43:00,
2013-08-03 10:53:00,65.0,55.0,-100.00,NNW,337,7.0,-999.0,70,-99.99,,,-99.99,591.599976,,2013-08-03 15:53:00,
2013-08-03 11:00:00,66.0,55.0,-100.00,NW,315,7.0,-999.0,67,-99.99,,,-99.99,713.400024,,2013-08-03 16:00:00,
2013-08-03 11:33:00,66.0,55.0,-100.00,NW,315,7.0,-999.0,67,-99.99,,,-99.99,713.400024,,2013-08-03 16:33:00,
2013-08-03 11:43:00,66.0,55.0,-100.00,NW,315,7.0,-999.0,67,-99.99,,,-99.99,713.400024,,2013-08-03 16:43:00,
2013-08-03 11:53:00,66.0,55.0,-100.00,NW,315,7.0,-999.0,67,-99.99,,,-99.99,713.400024,,2013-08-03 16:53:00,
2013-08-03 12:00:00,68.0,56.0,-100.00,NW,315,7.0,-999.0,64,-99.99,,,-99.99,791.119995,,2013-08-03 17:00:00,
2013-08-03 12:32:00,68.0,56.0,-100.00,NW,315,7.0,-999.0,64,-99.99,,,-99.99,791.119995,,2013-08-03 17:32:00,
2013-08-03 12:43:00,68.0,56.0,-100.00,NW,315,7.0,-999.0,64,-99.99,,,-99.99,791.119995,,2013-08-03 17:43:00,
2013-08-03 12:52:00,68.0,56.0,-100.00,NW,315,7.0,-999.0,64,-99.99,,,-99.99,791.119995,,2013-08-03 17:52:00,
2013-08-03 13:00:00,70.0,56.0,-100.00,NW,315,6.0,-999.0,62,-99.99,,,-99.99,829.400024,,2013-08-03 18:00:00,
2013-08-03 13:32:00,70.0,56.0,-100.00,NW,315,6.0,-999.0,62,-99.99,,,-99.99,829.400024,,2013-08-03 18:32:00,
2013-08-03 13:43:00,70.0,56.0,-100.00,NW,315,6.0,-999.0,62,-99.99,,,-99.99,829.400024,,2013-08-03 18:43:00,
2013-08-03 13:53:00,70.0,56.0,-100.00,NW,315,6.0,-999.0,62,-99.99,,,-99.99,829.400024,,2013-08-03 18:53:00,
2013-08-03 14:00:00,70.0,56.0,-100.00,WNW,292,5.0,-999.0,60,-99.99,,,-99.99,626.400024,,2013-08-03 19:00:00,
2013-08-03 14:32:00,70.0,56.0,-100.00,WNW,292,5.0,-999.0,60,-99.99,,,-99.99,626.400024,,2013-08-03 19:32:00,
2013-08-03 14:43:00,70.0,56.0,-100.00,WNW,292,5.0,-999.0,60,-99.99,,,-99.99,626.400024,,2013-08-03 19:43:00,
2013-08-03 14:53:00,70.0,56.0,-100.00,WNW,292,5.0,-999.0,60,-99.99,,,-99.99,626.400024,,2013-08-03 19:53:00,
2013-08-03 15:00:00,71.0,55.0,-100.00,WNW,292,3.0,-999.0,57,-99.99,,,-99.99,553.320007,,2013-08-03 20:00:00,
2013-08-03 15:32:00,71.0,55.0,-100.00,WNW,292,3.0,-999.0,57,-99.99,,,-99.99,553.320007,,2013-08-03 20:32:00,
2013-08-03 15:42:00,71.0,55.0,-100.00,WNW,292,3.0,-999.0,57,-99.99,,,-99.99,553.320007,,2013-08-03 20:42:00,
2013-08-03 15:52:00,71.0,55.0,-100.00,WNW,292,3.0,-999.0,57,-99.99,,,-99.99,553.320007,,2013-08-03 20:52:00,
2013-08-03 16:00:00,72.0,56.0,-100.00,WNW,292,4.0,-999.0,57,-99.99,,,-99.99,581.159973,,2013-08-03 21:00:00,
2013-08-03 16:42:00,72.0,56.0,-100.00,WNW,292,4.0,-999.0,57,-99.99,,,-99.99,581.159973,,2013-08-03 21:42:00,
2013-08-03 16:52:00,72.0,56.0,-100.00,WNW,292,4.0,-999.0,57,-99.99,,,-99.99,581.159973,,2013-08-03 21:52:00,
2013-08-03 17:00:00,69.0,57.0,-100.00,WNW,292,4.0,-999.0,65,0.01,,,-99.99,380.480011,,2013-08-03 22:00:00,
2013-08-03 17:33:00,69.0,57.0,-100.00,WNW,292,4.0,-999.0,65,0.01,,,-99.99,380.480011,,2013-08-03 22:33:00,
2013-08-03 17:43:00,69.0,57.0,-100.00,WNW,292,4.0,-999.0,65,0.01,,,-99.99,380.480011,,2013-08-03 22:43:00,
2013-08-03 17:52:00,69.0,57.0,-100.00,WNW,292,4.0,-999.0,65,0.01,,,-99.99,380.480011,,2013-08-03 22:52:00,
2013-08-03 18:00:00,70.0,59.0,-100.00,ENE,67,1.0,-999.0,67,-99.99,,,-99.99,359.600006,,2013-08-03 23:00:00,
2013-08-03 18:32:00,70.0,59.0,-100.00,ENE,67,1.0,-999.0,67,-99.99,,,-99.99,359.600006,,2013-08-03 23:32:00,
2013-08-03 18:43:00,70.0,59.0,-100.00,ENE,67,1.0,-999.0,67,-99.99,,,-99.99,359.600006,,2013-08-03 23:43:00,
2013-08-03 18:52:00,70.0,59.0,-100.00,ENE,67,1.0,-999.0,67,-99.99,,,-99.99,359.600006,,2013-08-03 23:52:00,
2013-08-03 19:00:00,67.0,57.0,-100.00,NNE,22,3.0,-999.0,69,-99.99,,,-99.99,154.279999,,2013-08-04 00:00:00,
2013-08-03 19:42:00,67.0,57.0,-100.00,NNE,22,3.0,-999.0,69,-99.99,,,-99.99,154.279999,,2013-08-04 00:42:00,
2013-08-03 19:52:00,67.0,57.0,-100.00,NNE,22,3.0,-999.0,69,-99.99,,,-99.99,154.279999,,2013-08-04 00:52:00,
2013-08-03 20:00:00,63.0,58.0,-100.00,NNE,22,2.0,-999.0,82,0.01,,,-99.99,52.200001,,2013-08-04 01:00:00,
2013-08-03 20:32:00,63.0,58.0,-100.00,NNE,22,2.0,-999.0,82,0.01,,,-99.99,52.200001,,2013-08-04 01:32:00,
2013-08-03 20:42:00,63.0,58.0,-100.00,NNE,22,2.0,-999.0,82,0.01,,,-99.99,52.200001,,2013-08-04 01:42:00,
2013-08-03 20:53:00,63.0,58.0,-100.00,NNE,22,2.0,-999.0,82,0.01,,,-99.99,52.200001,,2013-08-04 01:53:00,
2013-08-03 21:00:00,59.0,57.0,-100.00,NNE,22,0.0,-999.0,93,0.01,,,-99.99,3.480000,,2013-08-04 02:00:00,
2013-08-03 21:32:00,59.0,57.0,-100.00,NNE,22,0.0,-999.0,93,0.01,,,-99.99,3.480000,,2013-08-04 02:32:00,
2013-08-03 21:42:00,59.0,57.0,-100.00,NNE,22,0.0,-999.0,93,0.01,,,-99.99,3.480000,,2013-08-04 02:42:00,
2013-08-03 21:52:00,59.0,57.0,-100.00,NNE,22,0.0,-999.0,93,0.01,,,-99.99,3.480000,,2013-08-04 02:52:00,
2013-08-03 22:00:00,55.0,54.0,-100.00,North,0,0.0,-999.0,97,-99.99,,,-99.99,0.000000,,2013-08-04 03:00:00,
2013-08-03 22:32:00,55.0,54.0,-100.00,North,0,0.0,-999.0,97,-99.99,,,-99.99,0.000000,,2013-08-04 03:32:00,
2013-08-03 22:42:00,55.0,54.0,-100.00,North,0,0.0,-999.0,97,-99.99,,,-99.99,0.000000,,2013-08-04 03:42:00,
2013-08-03 22:52:00,55.0,54.0,-100.00,North,0,0.0,-999.0,97,-99.99,,,-99.99,0.000000,,2013-08-04 03:52:00,
2013-08-03 23:00:00,54.0,53.0,-100.00,North,0,0.0,-999.0,97,-99.99,,,-99.99,0.000000,,2013-08-04 04:00:00,
2013-08-03 23:32:00,54.0,53.0,-100.00,North,0,0.0,-999.0,97,-99.99,,,-99.99,0.000000,,2013-08-04 04:32:00,
2013-08-03 23:42:00,54.0,53.0,-100.00,North,0,0.0,-999.0,97,-99.99,,,-99.99,0.000000,,2013-08-04 04:42:00,
2013-08-03 23:52:00,54.0,53.0,-100.00,North,0,0.0,-999.0,97,-99.99,,,-99.99,0.000000,,2013-08-04 04:52:00,